Regional Weather Roundup
Issued by NWS

Home | Current Version | Previous Version | Text Only | Print | Product List | Glossary On
Versions: 1 2 3 4 5 6 7 8 9 10 11 12 13 14 15 16 17 18 19 20 21 22 23 24 25 26 27 28 29 30 31 32 33 34 35 36 37 38 39 40 41 42 43 44 45 46 47 48 49 50
000
ASUS43 KLSX 140607
RWRMO

WEATHER SUMMARY FOR MISSOURI
NATIONAL WEATHER SERVICE SPRINGFIELD MO
100 AM CDT MON JUL 14 2014

NOTE: "FAIR" INDICATES FEW OR NO CLOUDS BELOW 12,000 FEET WITH NO
       SIGNIFICANT WEATHER AND/OR OBSTRUCTIONS TO VISIBILITY.
       CURRENT SKY AND/OR WEATHER CONDITIONS ARE NOT AVAILABLE FOR
       CHILLICOTHE AND FARMINGTON.

MOZ001>031-035>038-043-044-053-054-140700-
...NORTHERN AND WESTERN MISSOURI...

CITY           SKY/WX    TMP DP  RH WIND       PRES   REMARKS
KANSAS CTY INT CLEAR     73  68  84 W6        29.99S
6HR MIN TEMP:  73; 6HR MAX TEMP:  84;

KANSAS C DTWN  CLEAR     76  69  79 CALM      29.98R
6HR MIN TEMP:  75; 6HR MAX TEMP:  85;

LEE`S SUMMIT   CLEAR     71  68  90 SW3       29.99F
6HR MIN TEMP:  70; 6HR MAX TEMP:  84;

ST JOSEPH      CLEAR     73  72  96 CALM      29.98S
6HR MIN TEMP:  73; 6HR MAX TEMP:  85;

CHILLICOTHE      N/A     71  69  93 CALM      29.98R
6HR MIN TEMP:  71; 6HR MAX TEMP:  84;

KIRKSVILLE     PTCLDY    69  67  93 CALM      29.97F
6HR MIN TEMP:  68; 6HR MAX TEMP:  85;


$$
MOZ066>068-077>081-088>096-101>105-140700-
...SOUTHWEST MISSOURI...

CITY           SKY/WX    TMP DP  RH WIND       PRES   REMARKS
SPRINGFIELD    CLOUDY    75  72  90 N5        29.98F
6HR MIN TEMP:  75; 6HR MAX TEMP:  89; 6HR PCP:  0.01;

JOPLIN         CLOUDY    78  71  79 S9        30.00R
6HR MIN TEMP:  76; 6HR MAX TEMP:  89;


$$
MOZ032>034-039>042-045>050-055>058-069>072-140700-
...CENTRAL MISSOURI...

CITY           SKY/WX    TMP DP  RH WIND       PRES   REMARKS
COLUMBIA       FOG       71  71 100 W3        29.98R VSB 1/4
6HR MIN TEMP:  70; 6HR MAX TEMP:  75; 6HR PCP:  0.20;

JEFFERSON CITY CLOUDY    73  71  93 CALM      29.97R
6HR MIN TEMP:  72; 6HR MAX TEMP:  79; 6HR PCP: TRACE;

ROLLA          CLOUDY    70  69  97 N3        29.95F
6HR MIN TEMP:  70; 6HR MAX TEMP:  81;

SEDALIA        CLEAR     71  69  93 NW3       29.98S
6HR MIN TEMP:  70; 6HR MAX TEMP:  76; 6HR PCP:  0.02;

WHITEMAN AFB   PTCLDY    71  67  87 NW7       29.97S
OSAGE BEACH    CLOUDY    72  70  94 CALM      29.98R VSB 1/2

$$
MOZ051-052-059>065-140700-
...EAST CENTRAL MISSOURI...

CITY           SKY/WX    TMP DP  RH WIND       PRES   REMARKS
ST LOUIS INTL  CLOUDY    78  74  87 SW3       29.95F
6HR MIN TEMP:  77; 6HR MAX TEMP:  83; 6HR PCP:  0.11;

SPIRIT OF STL  CLOUDY    74  72  93 CALM      29.93S
6HR MIN TEMP:  74; 6HR MAX TEMP:  79; 6HR PCP:  0.09;

ST CHARLES     CLOUDY    75  73  93 CALM      29.92F
6HR MIN TEMP:  74; 6HR MAX TEMP:  84;


$$
MOZ072>076-082>087-097>100-106>115-140700-
...SOUTH CENTRAL AND SOUTHEAST MISSOURI...

CITY           SKY/WX    TMP DP  RH WIND       PRES   REMARKS
CAPE GIRARDEAU CLOUDY    81  75  82 SW5       29.92S
6HR MIN TEMP:  78; 6HR MAX TEMP:  89;

FARMINGTON     CLOUDY    70  66  88 E3        30.01R THUNDER
6HR MIN TEMP:  70; 6HR MAX TEMP:  79; 6HR PCP:  0.81;

POPLAR BLUFF   MOCLDY    81  72  74 SW7       29.93R
6HR MIN TEMP:  81; 6HR MAX TEMP:  89;

WEST PLAINS    MOCLDY    72  68  87 SW3       29.99F
6HR MIN TEMP:  72; 6HR MAX TEMP:  84; 6HR PCP:  0.16;


$$



USA.gov is the U.S. government's official web portal to all federal, state and local government web resources and services.